This is the latest recevied weather packets stored in our database for station/object OK1FET-16. If no packets are shown the sender has not sent any weather packets the latest 10 day(s).
| Time | Temp. | Humidity | Pressure | Rain* | Wind** | Luminosity | Snow |
|---|---|---|---|---|---|---|---|
| 1787933888 | 22.22° C | 66% | 1068.6 hPa | - | - | - | - |
| 1787933346 | 22.78° C | 63% | 1068.3 hPa | - | - | - | - |
| 1787933076 | 23.33° C | 61% | 1068.8 hPa | - | - | - | - |
| 1787932805 | 23.33° C | 60% | 1068.9 hPa | - | - | - | - |
| 1787932263 | 23.89° C | 58% | 1068.6 hPa | - | - | - | - |
| 1787931992 | 24.44° C | 57% | 1068.6 hPa | - | - | - | - |
| 1787931721 | 25° C | 55% | 1068.5 hPa | - | - | - | - |
| 1787931450 | 25° C | 54% | 1068.6 hPa | - | - | - | - |
| 1787931179 | 25.56° C | 52% | 1068.4 hPa | - | - | - | - |
| 1787930637 | 26.11° C | 51% | 1068.2 hPa | - | - | - | - |
| 1787930365 | 26.11° C | 51% | 1068.2 hPa | - | - | - | - |
| 1787930094 | 26.11° C | 51% | 1068 hPa | - | - | - | - |
| 1787929823 | 26.67° C | 51% | 1067.6 hPa | - | - | - | - |
| 1787929281 | 26.67° C | 51% | 1067.4 hPa | - | - | - | - |
| 1787929010 | 26.67° C | 51% | 1067.5 hPa | - | - | - | - |
| 1787928738 | 26.67° C | 51% | 1067.6 hPa | - | - | - | - |
| 1787926840 | 27.78° C | 50% | 1067.7 hPa | - | - | - | - |
| 1787926568 | 27.78° C | 50% | 1067.8 hPa | - | - | - | - |
| 1787926297 | 27.78° C | 50% | 1067.9 hPa | - | - | - | - |
| 1787926026 | 27.78° C | 51% | 1067.8 hPa | - | - | - | - |
| 1787924941 | 26.67° C | 52% | 1067.9 hPa | - | - | - | - |
| 1787924670 | 26.67° C | 52% | 1067.9 hPa | - | - | - | - |
| 1787924127 | 26.11° C | 52% | 1067.8 hPa | - | - | - | - |
| 1787923314 | 26.11° C | 52% | 1068.2 hPa | - | - | - | - |
| 1787923043 | 26.11° C | 52% | 1068.2 hPa | - | - | - | - |
* Rain since midnight (hover to see other rain measurements)
** Current wind speed in m/s (hover to see current wind gust speed)